[[{"header":{"parameterUnit":"m.s-1","parameterCategory":2,"la1":30.2991,"la2":30.254,"lo1":-89.0895,"lo2":-89.0444,"dy":0.0017,"dx":0.0017,"nx":28,"ny":28,"refTime":"2023-09-10T09:00:00:Z","depth":"0","parameterNumber":2,"parameterNumberName":"U-component_of_CURRENTS"},"data":[0,0,0,0,0,0,0,0,0,0,0,0,0,0,0,0,0,0,0,0,0,0,0,0,0,0,0,0,0,0,0,0,0,0,0,0,0,0,0,0,0,0,0,0,0,0,0,0,0,0,0,0,0,0,0,0,0,0,0.3439,0.344,0,0.3501,0.3501,0.3501,0.3497,0.3497,0.3497,0.3496,0.3524,0.3525,0.3526,0,0,0,0,0,0,0,0,0,0,0,0,0,0.3394,0.3393,0.3439,0.344,0.3441,0.3501,0.3501,0.3501,0.3497,0.3497,0.3497,0.3496,0.3524,0.3525,0.3527,0,0,0,0,0,0,0,0,0,0,0,0,0,0.3424,0.3393,0.3438,0.3451,0.3454,0.3501,0.3501,0.3501,0.3498,0.3497,0.3497,0.3496,0.3524,0.3525,0.3527,0.3546,0,0,0.3531,0.3532,0,0,0,0,0,0,0,0,0.3422,0.3425,0.3448,0.3451,0.3453,0.3497,0.3496,0.3517,0.3498,0.3474,0.3496,0.3496,0.3516,0.3519,0.3523,0.3547,0.3549,0.3532,0.3533,0.3533,0.3534,0,0,0,0,0,0,0,0.342,0.3423,0.3457,0.345,0.3453,0.3481,0.3483,0.35,0.3492,0.3476,0.3478,0.3495,0.3517,0.3521,0.3523,0.3549,0.3532,0.3533,0.3534,0.3535,0.3615,0.3616,0,0,0,0,0,0,0.3422,0.342,0.3455,0.3459,0.3443,0.3482,0.3485,0.3478,0.3492,0.3496,0.3495,0.3495,0.3519,0.3522,0.3524,0.359,0.3533,0.3535,0.3536,0.3614,0.3615,0.3617,0,0,0,0,0,0,0.342,0.3423,0.3453,0.3448,0.3454,0.3484,0.3476,0.348,0.3494,0.3508,0.351,0.3508,0.3518,0.3522,0.3546,0.3589,0.3535,0.3537,0.3612,0.3614,0.3616,0.3694,0,0,0,0,0,0,0.3418,0.3421,0.3416,0.3447,0.3455,0.3499,0.3478,0.3481,0.3508,0.3508,0.352,0.3522,0.3518,0.3544,0.3548,0.359,0.3538,0.3611,0.3613,0.3615,0.369,0.3698,0.3705,0,0,0,0,0,0.3415,0.3413,0.3415,0.342,0.3446,0.3501,0.3508,0.3523,0.351,0.353,0.3527,0.3522,0.3561,0.3546,0.355,0.3594,0.361,0.3613,0.3615,0.3686,0.3696,0.3705,0,0,0,0,0,0,0.3372,0.3414,0.3416,0.3419,0.3467,0.3503,0.3523,0.3532,0.3545,0.3537,0.3536,0.3538,0.358,0.357,0.3554,0.3622,0.3586,0.3589,0.3638,0.3648,0.3656,0.3657,0.3539,0,0,0,0,0,0.3366,0.3389,0.3428,0.3438,0.3459,0.3491,0.3513,0.3528,0.3548,0.3553,0.357,0.3576,0.3594,0.3605,0.3621,0.3656,0.3664,0.3686,0.3694,0.3701,0.3704,0.3741,0.3753,0.3625,0.3625,0.3625,0,0,0.3356,0.3382,0.3394,0.3435,0.3465,0.3507,0.3502,0.3544,0.3579,0.3555,0.3602,0.3609,0.3609,0.3651,0.3669,0.3649,0.3747,0.3704,0.371,0.3709,0.3745,0.3758,0.3769,0.3627,0.3627,0.3627,0,0,0.3364,0.3368,0.3396,0.3437,0.3494,0.3523,0.354,0.3589,0.3609,0.3651,0.3646,0.3676,0.3703,0.3722,0.3727,0.3785,0.3789,0.3793,0.3835,0.3872,0.3883,0.3893,0.3948,0.3962,0.3794,0.3794,0.3795,0,0.3349,0.3378,0.3416,0.3455,0.3494,0.3533,0.3574,0.3607,0.3661,0.3688,0.3674,0.3734,0.3738,0.3791,0.3808,0.3807,0.3828,0.3802,0.3884,0.3893,0.3902,0.3956,0.397,0.3799,0.3798,0.3798,0.3797,0,0.3387,0.3407,0.343,0.3494,0.3544,0.3587,0.3646,0.3694,0.372,0.3752,0.3816,0.3825,0.386,0.3873,0.3854,0.3926,0.3924,0.3893,0.3862,0.3919,0.3973,0.3987,0.3804,0.3803,0.3802,0.3801,0,0,0.3363,0.3438,0.3446,0.3479,0.3565,0.361,0.3683,0.3762,0.3807,0.3856,0.3916,0.3953,0.3962,0.3969,0.397,0.3996,0.4084,0.397,0.397,0.4031,0.4186,0.4215,0.4233,0.4066,0.4068,0.407,0.421,0,0.3381,0.3439,0.3486,0.356,0.36,0.3668,0.3736,0.3813,0.3868,0.3938,0.3967,0.4019,0.3999,0.4019,0.4049,0.4068,0.4118,0.4049,0.4117,0.4119,0.4142,0.4248,0.403,0.4138,0.4223,0.4226,0.4227,0,0.3406,0.3446,0.3502,0.3594,0.3619,0.3671,0.379,0.3853,0.3956,0.3999,0.4063,0.4089,0.4158,0.4115,0.4206,0.4162,0.4187,0.4198,0.4203,0.4208,0.4173,0.4089,0.416,0.4049,0.4248,0.4246,0.4245,0,0.3383,0.3462,0.3503,0.3535,0.3642,0.3688,0.3752,0.3865,0.3926,0.4039,0.4086,0.4174,0.4213,0.4258,0.4306,0.4257,0.44,0.4333,0.4395,0.4398,0.4214,0.4197,0.4183,0.4409,0.4408,0.4408,0.4408,0,0.3387,0.3424,0.3488,0.3516,0.3579,0.3668,0.375,0.383,0.3943,0.403,0.4104,0.4188,0.4245,0.4334,0.4357,0.4448,0.4457,0.4438,0.4446,0.4239,0.4224,0.4119,0.4076,0.4413,0.4412,0.4411,0.441,0,0.3359,0.3396,0.3449,0.3541,0.3565,0.3613,0.373,0.3795,0.3905,0.402,0.4061,0.4211,0.4353,0.4431,0.453,0.4522,0.4474,0.4625,0.4401,0.4381,0.4309,0.4279,0.415,0.4034,0.4703,0.4705,0.4707,0,0.3344,0.3366,0.3442,0.3461,0.3497,0.357,0.3625,0.3757,0.3833,0.4046,0.4097,0.4281,0.4398,0.4577,0.4627,0.472,0.4557,0.4559,0.4424,0.4317,0.4288,0.4105,0.4001,0.4215,0.4212,0.421,0.4208,0,0.3321,0.3344,0.3377,0.3421,0.3465,0.352,0.3608,0.3656,0.3836,0.3937,0.4103,0.4212,0.4433,0.4448,0.4597,0.4609,0.4324,0.4521,0.4432,0.3949,0.3719,0.3605,0.4138,0.4188,0.419,0.4191,0.4193,0.4193,0.3291,0.3299,0.3338,0.3368,0.3414,0.3452,0.3451,0.3567,0.3663,0.3787,0.3988,0.4069,0.4208,0.4391,0.4399,0.427,0.4274,0.4104,0.4096,0.3937,0.3751,0.4289,0.4338,0.4341,0.4343,0.4345,0.4347,0,0.3246,0.3259,0.3287,0.3305,0.3307,0.3367,0.3424,0.3398,0.3448,0.3634,0.374,0.381,0.3838,0.3922,0.3932,0.383,0.3592,0.3725,0.3357,0.3292,0.3781,0.3687,0.3568,0.3568,0.3568,0.3568,0.3568,0.3568,0.3226,0.3218,0.3224,0.3185,0.319,0.3144,0.3137,0.3125,0.3197,0.3232,0.3263,0.3363,0.3534,0.3624,0.3524,0.3434,0.3176,0.3043,0.3092,0.3388,0.3419,0.3448,0.3347,0.3158,0.3158,0.2376,0.237,0.2366]},{"header":{"parameterUnit":"m.s-1","parameterCategory":2,"la1":30.2991,"la2":30.254,"lo1":-89.0895,"lo2":-89.0444,"dy":0.0017,"dx":0.0017,"nx":28,"ny":28,"refTime":"2023-09-10T09:00:00:Z","depth":"0","parameterNumber":3,"parameterNumberName":"V-component_of_CURRENTS"},"data":[0,0,0,0,0,0,0,0,0,0,0,0,0,0,0,0,0,0,0,0,0,0,0,0,0,0,0,0,0,0,0,0,0,0,0,0,0,0,0,0,0,0,0,0,0,0,0,0,0,0,0,0,0,0,0,0,0,0,-0.034,-0.0341,0,-0.0418,-0.0419,-0.042,-0.0443,-0.0443,-0.0442,-0.0442,-0.0565,-0.0569,-0.0572,0,0,0,0,0,0,0,0,0,0,0,0,0,-0.0337,-0.0336,-0.034,-0.0341,-0.0343,-0.0418,-0.0419,-0.042,-0.0443,-0.0443,-0.0442,-0.0442,-0.0564,-0.0568,-0.0572,0,0,0,0,0,0,0,0,0,0,0,0,0,-0.0366,-0.0335,-0.034,-0.0365,-0.0368,-0.0418,-0.0419,-0.042,-0.0443,-0.0443,-0.0442,-0.0442,-0.0563,-0.0568,-0.0573,-0.0612,0,0,-0.0589,-0.0591,0,0,0,0,0,0,0,0,-0.0365,-0.0366,-0.036,-0.0363,-0.0367,-0.0422,-0.0463,-0.0487,-0.0443,-0.0412,-0.0442,-0.0442,-0.0523,-0.0532,-0.0544,-0.0618,-0.0623,-0.0589,-0.0593,-0.0595,-0.0596,0,0,0,0,0,0,0,-0.0362,-0.0364,-0.0369,-0.0361,-0.0365,-0.0415,-0.0417,-0.0468,-0.0468,-0.0415,-0.0417,-0.0429,-0.0525,-0.0538,-0.0547,-0.0625,-0.0589,-0.0594,-0.0597,-0.0599,-0.0733,-0.0734,0,0,0,0,0,0,-0.035,-0.0361,-0.0367,-0.0372,-0.0367,-0.0415,-0.0418,-0.0403,-0.0466,-0.0476,-0.043,-0.043,-0.053,-0.0541,-0.0551,-0.0609,-0.0595,-0.06,-0.0603,-0.0733,-0.0733,-0.0734,0,0,0,0,0,0,-0.0349,-0.0349,-0.0363,-0.0372,-0.0377,-0.0415,-0.0399,-0.0405,-0.0422,-0.0477,-0.0487,-0.0441,-0.053,-0.0544,-0.0581,-0.0614,-0.0602,-0.0607,-0.0732,-0.0733,-0.0734,-0.0721,0,0,0,0,0,0,-0.0348,-0.0347,-0.0335,-0.037,-0.0376,-0.0383,-0.0399,-0.0407,-0.0431,-0.0432,-0.0491,-0.0501,-0.0531,-0.0573,-0.0587,-0.0621,-0.0611,-0.0732,-0.0733,-0.0733,-0.0721,-0.0721,-0.0721,0,0,0,0,0,-0.0348,-0.0332,-0.0333,-0.0334,-0.0355,-0.0383,-0.039,-0.0417,-0.0432,-0.0432,-0.0466,-0.05,-0.0589,-0.0577,-0.0593,-0.063,-0.0731,-0.0732,-0.0733,-0.0721,-0.0721,-0.0721,0,0,0,0,0,0,-0.0297,-0.0334,-0.0336,-0.0322,-0.0346,-0.0387,-0.0392,-0.0419,-0.0448,-0.0446,-0.0502,-0.0514,-0.0565,-0.0592,-0.0578,-0.0669,-0.0668,-0.0672,-0.0653,-0.0654,-0.0654,-0.0623,-0.0615,0,0,0,0,0,-0.0285,-0.0301,-0.0323,-0.0315,-0.0318,-0.0357,-0.0374,-0.0389,-0.0422,-0.0434,-0.0482,-0.053,-0.0583,-0.0609,-0.0653,-0.07,-0.0697,-0.0734,-0.0734,-0.0734,-0.0718,-0.075,-0.0752,-0.0737,-0.0737,-0.0737,0,0,-0.0263,-0.0289,-0.0293,-0.0311,-0.0326,-0.0326,-0.0365,-0.0378,-0.0393,-0.0445,-0.048,-0.0535,-0.0594,-0.0643,-0.067,-0.0669,-0.0731,-0.0735,-0.0735,-0.0719,-0.0751,-0.0753,-0.0754,-0.0738,-0.0738,-0.0738,0,0,-0.0229,-0.0241,-0.0235,-0.0254,-0.0279,-0.0307,-0.0311,-0.035,-0.0376,-0.0411,-0.0464,-0.0524,-0.0595,-0.065,-0.0687,-0.0715,-0.0732,-0.0742,-0.0722,-0.0754,-0.0755,-0.0756,-0.0724,-0.0722,-0.0741,-0.0741,-0.0741,0,-0.0195,-0.0188,-0.0236,-0.0229,-0.0241,-0.0295,-0.0277,-0.0316,-0.037,-0.0398,-0.0409,-0.0537,-0.0596,-0.0676,-0.0688,-0.0718,-0.0711,-0.0719,-0.0753,-0.0755,-0.0756,-0.0723,-0.0721,-0.0741,-0.0741,-0.0741,-0.0741,0,-0.0148,-0.0146,-0.0142,-0.0158,-0.0176,-0.0176,-0.0225,-0.0257,-0.0302,-0.0349,-0.0429,-0.051,-0.0579,-0.0631,-0.0669,-0.0731,-0.0712,-0.0751,-0.0749,-0.0756,-0.0721,-0.072,-0.074,-0.074,-0.074,-0.074,0,0,-0.007,-0.0101,-0.0098,-0.0098,-0.0139,-0.0148,-0.0178,-0.0224,-0.0243,-0.0325,-0.0358,-0.0487,-0.0538,-0.0581,-0.0661,-0.0706,-0.0717,-0.0728,-0.073,-0.0687,-0.0735,-0.0658,-0.0649,-0.0765,-0.0765,-0.0766,-0.0694,0,-0.0014,0.0011,-0.0026,-0.0012,-0.0004,-0.0066,-0.009,-0.0146,-0.0204,-0.0252,-0.037,-0.0425,-0.052,-0.0549,-0.0618,-0.0696,-0.0717,-0.0729,-0.074,-0.0739,-0.0666,-0.0648,-0.0584,-0.051,-0.0693,-0.0692,-0.0692,0,0.0043,0.0042,0.0081,0.0047,0.0051,0.0051,0.0005,-0.0022,-0.0112,-0.0156,-0.0244,-0.0322,-0.0423,-0.0485,-0.0608,-0.0609,-0.0658,-0.0714,-0.0713,-0.0644,-0.0661,-0.054,-0.0501,-0.0692,-0.069,-0.069,-0.069,0,0.0099,0.0106,0.0134,0.0128,0.0098,0.0099,0.008,0.001,-0.0002,-0.0085,-0.0086,-0.0232,-0.0262,-0.0387,-0.0503,-0.0551,-0.0595,-0.0675,-0.0644,-0.0637,-0.0583,-0.057,-0.0723,-0.0729,-0.0729,-0.0729,-0.0729,0,0.0147,0.0163,0.0167,0.0179,0.0216,0.0167,0.0189,0.0147,0.0106,0.0134,-0.0024,-0.0013,-0.0237,-0.0297,-0.0437,-0.0505,-0.0536,-0.0613,-0.0618,-0.0572,-0.056,-0.0724,-0.0834,-0.0726,-0.0727,-0.0727,-0.0728,0,0.0195,0.0195,0.0228,0.0233,0.0244,0.0272,0.0283,0.0299,0.0248,0.0291,0.0282,0.017,0.0118,-0.0071,-0.0224,-0.0368,-0.0544,-0.0485,-0.0378,-0.0373,-0.0548,-0.0656,-0.0743,-0.0819,-0.045,-0.0448,-0.0446,0,0.0224,0.0248,0.0295,0.0337,0.0348,0.0382,0.0418,0.0378,0.0416,0.043,0.0478,0.0437,0.0463,0.0262,0.0019,-0.016,-0.0392,-0.0261,-0.0367,-0.0523,-0.0651,-0.074,-0.0807,-0.0277,-0.0274,-0.0271,-0.0269,0,0.0285,0.0308,0.0346,0.044,0.0497,0.0557,0.0613,0.0668,0.0671,0.0749,0.0864,0.0896,0.0726,0.0575,0.0298,0.0128,-0.0373,-0.0212,-0.043,-0.0558,-0.0609,-0.0694,-0.0326,-0.0247,-0.0249,-0.0251,-0.0252,-0.0253,0.0353,0.04,0.047,0.056,0.0636,0.0752,0.0839,0.0939,0.108,0.1265,0.1236,0.1386,0.105,0.0698,0.0409,-0.0101,-0.0154,-0.0292,-0.0411,-0.0487,-0.0573,-0.0111,-0.0015,-0.0016,-0.0017,-0.0017,-0.0018,0,0.0457,0.0506,0.0588,0.0717,0.0836,0.084,0.0994,0.1121,0.1375,0.1586,0.1758,0.1739,0.1339,0.0826,0.0142,-0.0251,-0.0451,-0.0499,-0.0668,-0.0733,-0.0361,-0.0371,-0.0279,-0.0279,-0.0279,-0.0278,-0.0278,-0.0278,0.0518,0.0623,0.0662,0.0881,0.0974,0.1153,0.1259,0.1482,0.1673,0.2022,0.2187,0.2254,0.1843,0.0549,-0.0366,-0.0593,-0.0922,-0.0934,-0.1137,-0.0954,-0.0947,-0.094,-0.098,-0.1017,-0.1018,-0.1459,-0.1464,-0.1467]}],[{"header":{"parameterUnit":"m.s-1","parameterCategory":2,"la1":30.2991,"la2":30.254,"lo1":-89.0895,"lo2":-89.0444,"dy":0.0017,"dx":0.0017,"nx":28,"ny":28,"refTime":"2023-09-10T09:00:00:Z","depth":"2","parameterNumber":2,"parameterNumberName":"U-component_of_CURRENTS"},"data":[0,0,0,0,0,0,0,0,0,0,0,0,0,0,0,0,0,0,0,0,0,0,0,0,0,0,0,0,0,0,0,0,0,0,0,0,0,0,0,0,0,0,0,0,0,0,0,0,0,0,0,0,0,0,0,0,0,0,0.2479,0.2479,0,0.2516,0.2517,0.2518,0.2584,0.2585,0.2586,0.2586,0.2578,0.2578,0.2577,0,0,0,0,0,0,0,0,0,0,0,0,0,0.2423,0.2424,0.2479,0.2479,0.2479,0.2516,0.2517,0.2518,0.2584,0.2585,0.2586,0.2587,0.2579,0.2578,0.2577,0,0,0,0,0,0,0,0,0,0,0,0,0,0.2457,0.2425,0.2479,0.2512,0.2515,0.2516,0.2517,0.2519,0.2584,0.2585,0.2586,0.2587,0.2579,0.2578,0.2576,0.2544,0,0,0.2572,0.2571,0,0,0,0,0,0,0,0,0.2455,0.246,0.2507,0.251,0.2513,0.2542,0.2495,0.2523,0.2583,0.2563,0.2586,0.2588,0.2558,0.2558,0.2571,0.2544,0.2543,0.2572,0.2571,0.257,0.257,0,0,0,0,0,0,0,0.2453,0.2458,0.2499,0.2507,0.2511,0.2511,0.2518,0.2501,0.2556,0.2565,0.2569,0.2564,0.256,0.2572,0.2571,0.2543,0.2572,0.2571,0.257,0.2569,0.2595,0.2597,0,0,0,0,0,0,0.2439,0.2457,0.2497,0.2499,0.2481,0.2511,0.2519,0.2536,0.2558,0.2561,0.2563,0.2567,0.2574,0.2572,0.2571,0.2623,0.257,0.2569,0.2568,0.2594,0.2596,0.2597,0,0,0,0,0,0,0.2438,0.2443,0.2496,0.2473,0.248,0.2511,0.2529,0.2536,0.2576,0.2556,0.256,0.2599,0.2575,0.2573,0.2587,0.262,0.2569,0.2567,0.2592,0.2594,0.2596,0.267,0,0,0,0,0,0,0.2437,0.2443,0.2462,0.2473,0.248,0.2508,0.2527,0.2536,0.2567,0.2574,0.2587,0.2586,0.2575,0.2589,0.2585,0.2617,0.2566,0.259,0.2593,0.2596,0.2665,0.2674,0.2682,0,0,0,0,0,0.2435,0.2448,0.2463,0.2468,0.2501,0.2508,0.2513,0.2541,0.2568,0.2584,0.2604,0.2587,0.2605,0.2589,0.2584,0.2616,0.2589,0.2592,0.2595,0.2662,0.2673,0.2682,0,0,0,0,0,0,0.2435,0.2455,0.2472,0.2493,0.2505,0.2518,0.2539,0.2554,0.2585,0.26,0.2596,0.2596,0.2631,0.2607,0.2589,0.2634,0.2598,0.26,0.265,0.266,0.2668,0.2695,0.2565,0,0,0,0,0,0.2441,0.2453,0.2473,0.2485,0.2506,0.253,0.2542,0.2555,0.2573,0.2591,0.2593,0.2607,0.2635,0.2635,0.2643,0.2648,0.2664,0.267,0.2678,0.2685,0.2706,0.2756,0.2771,0.2609,0.2609,0.2609,0,0,0.2426,0.245,0.2449,0.2485,0.251,0.2542,0.2544,0.2565,0.2591,0.2579,0.2623,0.2636,0.2647,0.2676,0.2687,0.266,0.2742,0.269,0.2696,0.2713,0.2761,0.2777,0.2791,0.2611,0.2611,0.261,0,0,0.2421,0.2453,0.2475,0.2495,0.253,0.255,0.2563,0.2587,0.2612,0.2638,0.2659,0.2695,0.2702,0.2729,0.2745,0.2798,0.2794,0.2796,0.2847,0.2895,0.2909,0.2921,0.2971,0.2988,0.2788,0.2788,0.2789,0,0.2419,0.2451,0.2476,0.2517,0.2531,0.2564,0.2591,0.2624,0.264,0.2661,0.2661,0.2739,0.2739,0.281,0.2838,0.2819,0.2845,0.2808,0.2907,0.2919,0.2931,0.2979,0.2996,0.2792,0.2792,0.2791,0.2791,0,0.2438,0.2468,0.2487,0.2555,0.2575,0.2595,0.2638,0.2675,0.2708,0.2726,0.2796,0.2816,0.2859,0.2873,0.2876,0.2962,0.2955,0.2922,0.2883,0.2952,0.2998,0.3015,0.2798,0.2797,0.2795,0.2794,0,0,0.2429,0.2488,0.2502,0.2527,0.2592,0.2608,0.2676,0.2732,0.2779,0.2821,0.2888,0.2952,0.2963,0.2984,0.2993,0.3042,0.3147,0.3021,0.3022,0.3075,0.3266,0.3174,0.3182,0.3131,0.3134,0.3136,0.3269,0,0.2448,0.2504,0.2532,0.2581,0.2612,0.2663,0.2727,0.2779,0.2812,0.2882,0.295,0.3017,0.3004,0.3042,0.3089,0.3152,0.3193,0.3115,0.3189,0.3192,0.3103,0.3199,0.2951,0.3041,0.3285,0.3288,0.329,0,0.2471,0.2504,0.2544,0.2601,0.2627,0.2672,0.2761,0.2808,0.2914,0.2967,0.3041,0.3068,0.3193,0.3152,0.3295,0.3249,0.3263,0.3296,0.33,0.3202,0.313,0.3009,0.3061,0.3317,0.3315,0.3313,0.3311,0,0.2444,0.2513,0.2538,0.2556,0.2638,0.2685,0.2747,0.2833,0.2885,0.302,0.3088,0.3193,0.329,0.3343,0.339,0.3359,0.3528,0.3479,0.3407,0.3401,0.3199,0.3168,0.3552,0.3552,0.3551,0.3551,0.355,0,0.2441,0.2466,0.2536,0.2548,0.2617,0.2676,0.2743,0.2843,0.296,0.3046,0.3126,0.3216,0.3344,0.342,0.344,0.3492,0.3562,0.3452,0.3439,0.3216,0.3188,0.3422,0.3405,0.3556,0.3555,0.3554,0.3553,0,0.2404,0.244,0.2471,0.2559,0.2597,0.2646,0.2762,0.2812,0.2954,0.3077,0.3144,0.3294,0.3429,0.3495,0.3611,0.3563,0.3609,0.3581,0.3318,0.327,0.3442,0.3428,0.3557,0.3555,0.3553,0.3552,0.3551,0,0.2377,0.2393,0.2473,0.2488,0.2532,0.2609,0.2674,0.2821,0.2882,0.3103,0.3179,0.3339,0.3403,0.3539,0.3538,0.3571,0.3602,0.3313,0.3196,0.3474,0.3448,0.3436,0.3424,0.297,0.2964,0.296,0.2956,0,0.2333,0.2372,0.2405,0.2452,0.2506,0.2563,0.2672,0.2702,0.289,0.299,0.312,0.3177,0.335,0.327,0.332,0.3292,0.3296,0.3216,0.3597,0.2992,0.2927,0.2899,0.2906,0.2913,0.2918,0.2921,0.2923,0.2925,0.2309,0.2316,0.2367,0.2406,0.2466,0.2504,0.2484,0.2587,0.2654,0.276,0.2927,0.2957,0.3044,0.2996,0.2919,0.2885,0.3106,0.2948,0.2961,0.2979,0.2872,0.2806,0.2751,0.2754,0.2757,0.276,0.2762,0,0.2267,0.2283,0.2313,0.2341,0.2356,0.2432,0.2477,0.2413,0.2401,0.2553,0.2618,0.2464,0.2433,0.2527,0.242,0.2419,0.2375,0.2309,0.2227,0.2274,0.2315,0.217,0.1865,0.1861,0.1858,0.1855,0,0,0.2234,0.2234,0.2247,0.2236,0.2245,0.2206,0.2175,0.2112,0.2149,0.2089,0.2113,0.2321,0.2452,0.2117,0.2091,0.1953,0.2083,0.1878,0.261,0.2562,0.2597,0.2714,0.2548,0,0,0,0,0]},{"header":{"parameterUnit":"m.s-1","parameterCategory":2,"la1":30.2991,"la2":30.254,"lo1":-89.0895,"lo2":-89.0444,"dy":0.0017,"dx":0.0017,"nx":28,"ny":28,"refTime":"2023-09-10T09:00:00:Z","depth":"2","parameterNumber":3,"parameterNumberName":"V-component_of_CURRENTS"},"data":[0,0,0,0,0,0,0,0,0,0,0,0,0,0,0,0,0,0,0,0,0,0,0,0,0,0,0,0,0,0,0,0,0,0,0,0,0,0,0,0,0,0,0,0,0,0,0,0,0,0,0,0,0,0,0,0,0,0,0.0224,0.0224,0,0.0177,0.0176,0.0175,0.0109,0.0108,0.0107,0.0107,0.0055,0.0054,0.0053,0,0,0,0,0,0,0,0,0,0,0,0,0,0.0258,0.0257,0.0224,0.0224,0.0224,0.0177,0.0176,0.0175,0.0109,0.0108,0.0107,0.0107,0.0055,0.0054,0.0053,0,0,0,0,0,0,0,0,0,0,0,0,0,0.0226,0.0257,0.0225,0.0189,0.0186,0.0177,0.0176,0.0175,0.0109,0.0108,0.0107,0.0106,0.0055,0.0054,0.0053,0.0067,0,0,0.005,0.0049,0,0,0,0,0,0,0,0,0.0228,0.0224,0.0194,0.0192,0.0188,0.0152,0.0169,0.014,0.0109,0.0133,0.0107,0.0106,0.0091,0.0087,0.0073,0.0065,0.0063,0.005,0.0049,0.0049,0.0048,0,0,0,0,0,0,0,0.023,0.0226,0.0201,0.0194,0.019,0.0176,0.017,0.0163,0.0115,0.0131,0.0127,0.013,0.0088,0.0075,0.0072,0.0062,0.005,0.0049,0.0048,0.0048,0.0021,0.0021,0,0,0,0,0,0,0.0247,0.0228,0.0202,0.02,0.0211,0.0177,0.0169,0.0161,0.0115,0.0108,0.0131,0.0127,0.0077,0.0073,0.007,0.0086,0.0049,0.0048,0.0047,0.0021,0.0021,0.0021,0,0,0,0,0,0,0.0247,0.0244,0.0204,0.0217,0.0212,0.0178,0.0168,0.016,0.0144,0.0116,0.0108,0.0122,0.0076,0.0071,0.0059,0.0083,0.0047,0.0046,0.0022,0.0021,0.0021,0.0117,0,0,0,0,0,0,0.0248,0.0244,0.0238,0.0218,0.0212,0.0212,0.0169,0.016,0.0149,0.0144,0.0106,0.01,0.0075,0.0061,0.0058,0.0081,0.0045,0.0022,0.0021,0.0021,0.0114,0.012,0.0125,0,0,0,0,0,0.0249,0.025,0.0238,0.0235,0.0206,0.0214,0.0209,0.0178,0.015,0.0155,0.0118,0.0101,0.0058,0.0061,0.0057,0.008,0.0022,0.0022,0.0021,0.0111,0.0119,0.0125,0,0,0,0,0,0,0.0259,0.0244,0.0229,0.0224,0.0226,0.0205,0.02,0.0184,0.0158,0.0143,0.0107,0.01,0.0096,0.007,0.0074,0.0067,0.0035,0.0034,0.0104,0.0111,0.0117,0.0129,0.0044,0,0,0,0,0,0.0262,0.0261,0.0249,0.0251,0.0245,0.0223,0.0218,0.0205,0.0184,0.017,0.0149,0.0116,0.0094,0.0088,0.0065,0.0072,0.0031,0.0079,0.0085,0.009,0.0095,0.005,0.0053,0.0021,0.0021,0.0021,0,0,0.0277,0.0262,0.0267,0.0254,0.0241,0.0248,0.0215,0.0217,0.0226,0.0171,0.0169,0.0139,0.0097,0.0098,0.0094,0.0081,0.0076,0.009,0.0096,0.0097,0.005,0.0053,0.0056,0.0021,0.0021,0.0021,0,0,0.0307,0.0281,0.029,0.0289,0.028,0.0269,0.0275,0.0261,0.0251,0.0248,0.0209,0.0197,0.0162,0.015,0.0133,0.0158,0.0106,0.0144,0.0194,0.0151,0.0154,0.0155,0.0107,0.0104,0.0152,0.0152,0.0152,0,0.0316,0.0323,0.0299,0.0303,0.0312,0.0282,0.0305,0.0292,0.0283,0.0291,0.0255,0.0214,0.0188,0.0193,0.0195,0.0177,0.0131,0.0178,0.0161,0.0162,0.0162,0.0112,0.0107,0.0156,0.0156,0.0155,0.0155,0,0.0357,0.0357,0.0362,0.0356,0.0366,0.0382,0.0371,0.0379,0.0358,0.0349,0.0347,0.0301,0.0282,0.027,0.0237,0.0238,0.0198,0.0174,0.0151,0.0172,0.0116,0.011,0.0163,0.0161,0.016,0.0159,0,0,0.0383,0.039,0.0389,0.0409,0.0397,0.042,0.0433,0.0453,0.048,0.044,0.0463,0.0418,0.0394,0.0371,0.0337,0.0299,0.0265,0.024,0.0235,0.0205,0.0156,0.0148,0.0139,0.0232,0.0231,0.0231,0.0117,0,0.0418,0.0453,0.0446,0.0495,0.0516,0.0507,0.0532,0.0546,0.0542,0.0555,0.0499,0.0495,0.043,0.0428,0.038,0.0301,0.0251,0.0298,0.0127,0.0122,0.0125,0.0133,0.0157,0.0059,0.011,0.0109,0.0108,0,0.0453,0.0476,0.0529,0.0581,0.059,0.0614,0.0671,0.0697,0.0698,0.0687,0.0663,0.0615,0.057,0.0497,0.036,0.0388,0.0277,0.0197,0.0191,0.0147,0.0103,0.0044,0.0045,0.0096,0.0097,0.0098,0.0099,0,0.0502,0.0536,0.059,0.0603,0.0647,0.068,0.0711,0.074,0.0784,0.0777,0.0795,0.0712,0.0678,0.0534,0.0377,0.036,0.0208,0.0166,0.0049,0.0046,0.0016,0.0012,0.005,0.005,0.005,0.0051,0.0051,0,0.0542,0.0583,0.0616,0.065,0.0727,0.0742,0.0837,0.0848,0.0883,0.0949,0.0871,0.0889,0.068,0.0576,0.0408,0.0221,0.0228,0.0058,0.002,0.0049,0.005,0.004,0.0041,0.0046,0.0047,0.0048,0.0049,0,0.0581,0.0598,0.067,0.073,0.0752,0.0813,0.0911,0.0985,0.1001,0.108,0.1078,0.1004,0.0867,0.0664,0.0432,0.0277,0.0093,0.0018,0.0066,0.0036,-0.0057,-0.0051,-0.0134,-0.0135,-0.0136,-0.0137,-0.0137,0,0.0611,0.0646,0.0731,0.0783,0.0809,0.0902,0.0978,0.1028,0.1108,0.1167,0.1202,0.11,0.1041,0.0708,0.0414,0.0117,0.0082,-0.0053,-0.008,-0.0046,-0.0074,-0.0066,-0.0059,-0.0093,-0.0094,-0.0094,-0.0094,0,0.0667,0.0687,0.0747,0.0852,0.0934,0.1042,0.1144,0.1218,0.1297,0.1354,0.1397,0.1354,0.1053,0.0758,0.0366,0.0171,-0.0002,-0.0067,-0.0046,-0.0037,-0.0013,-0.0039,-0.0033,-0.0096,-0.0096,-0.0096,-0.0096,-0.0095,0.0706,0.0754,0.0829,0.0926,0.1026,0.1152,0.1255,0.1362,0.148,0.1556,0.1517,0.145,0.1142,0.0626,0.0307,-0.0031,-0.0025,-0.0151,-0.0148,-0.0146,-0.0106,-0.0084,-0.0174,-0.0175,-0.0175,-0.0175,-0.0175,0,0.074,0.08,0.0901,0.1022,0.1136,0.1181,0.1346,0.144,0.1574,0.1626,0.1633,0.1335,0.1017,0.0667,0.0166,-0.0128,-0.0152,-0.022,-0.0184,-0.018,-0.0176,-0.0138,-0.0215,-0.0216,-0.0217,-0.0218,0,0,0.0764,0.0853,0.0902,0.1077,0.1174,0.1331,0.1428,0.1546,0.1613,0.1649,0.1606,0.1511,0.111,0.0743,0.035,0.0066,0.0009,0.0007,0.0071,0.0165,0.0172,-0.0105,-0.0036,0,0,0,0,0]}],[{"header":{"parameterUnit":"m.s-1","parameterCategory":2,"la1":30.2991,"la2":30.254,"lo1":-89.0895,"lo2":-89.0444,"dy":0.0017,"dx":0.0017,"nx":28,"ny":28,"refTime":"2023-09-10T09:00:00:Z","depth":"4","parameterNumber":2,"parameterNumberName":"U-component_of_CURRENTS"},"data":[0,0,0,0,0,0,0,0,0,0,0,0,0,0,0,0,0,0,0,0,0,0,0,0,0,0,0,0,0,0,0,0,0,0,0,0,0,0,0,0,0,0,0,0,0,0,0,0,0,0,0,0,0,0,0,0,0,0,0.1395,0.1395,0,0.1424,0.1424,0.1425,0.1479,0.148,0.1481,0.1482,0.154,0.1541,0.1542,0,0,0,0,0,0,0,0,0,0,0,0,0,0.1309,0.1311,0.1395,0.1395,0.1395,0.1424,0.1424,0.1425,0.1479,0.148,0.1481,0.1482,0.154,0.1541,0.1542,0,0,0,0,0,0,0,0,0,0,0,0,0,0.1345,0.1312,0.1395,0.1424,0.1427,0.1424,0.1424,0.1425,0.1479,0.148,0.1482,0.1483,0.154,0.1541,0.1542,0.1523,0,0,0.1546,0.1546,0,0,0,0,0,0,0,0,0.1343,0.1349,0.142,0.1422,0.1425,0.1448,0.1415,0.1459,0.1479,0.1461,0.1482,0.1484,0.151,0.1513,0.1519,0.1526,0.1528,0.1546,0.1546,0.1547,0.1547,0,0,0,0,0,0,0,0.1341,0.1347,0.1409,0.142,0.1423,0.1409,0.1417,0.1424,0.148,0.1463,0.1467,0.1466,0.1512,0.1517,0.152,0.1529,0.1546,0.1547,0.1547,0.1548,0.1631,0.1633,0,0,0,0,0,0,0.1336,0.1345,0.1408,0.1409,0.1384,0.141,0.1418,0.1441,0.148,0.1486,0.1465,0.1469,0.1515,0.1519,0.1523,0.1587,0.1547,0.1548,0.1548,0.163,0.1632,0.1633,0,0,0,0,0,0,0.1334,0.1342,0.1406,0.1375,0.1382,0.141,0.1435,0.1441,0.1479,0.148,0.1488,0.1501,0.1516,0.1521,0.1562,0.1586,0.1548,0.1549,0.1628,0.1631,0.1633,0.1661,0,0,0,0,0,0,0.1332,0.1342,0.1371,0.1375,0.1383,0.1425,0.1433,0.144,0.1474,0.148,0.1513,0.1518,0.1517,0.156,0.1563,0.1587,0.155,0.1626,0.1629,0.1632,0.1658,0.1664,0.1669,0,0,0,0,0,0.1329,0.1348,0.1373,0.1381,0.1419,0.1425,0.1429,0.1453,0.1474,0.1494,0.1523,0.1518,0.1581,0.1562,0.1565,0.159,0.1625,0.1628,0.1632,0.1655,0.1663,0.1669,0,0,0,0,0,0,0.133,0.1356,0.1383,0.1414,0.1432,0.1434,0.1453,0.147,0.1507,0.1525,0.1533,0.1539,0.159,0.1586,0.1566,0.1626,0.1604,0.1608,0.1621,0.1628,0.1634,0.1649,0.1551,0,0,0,0,0,0.1343,0.1366,0.1389,0.1416,0.1431,0.1452,0.1464,0.1482,0.1503,0.1523,0.1544,0.1572,0.1599,0.1612,0.1635,0.1657,0.1675,0.1679,0.1685,0.1689,0.1706,0.1749,0.176,0.1645,0.1645,0.1645,0,0,0.1346,0.1366,0.138,0.1418,0.1438,0.1461,0.1465,0.1491,0.1518,0.1521,0.1575,0.1597,0.1614,0.165,0.167,0.1652,0.1732,0.1693,0.1697,0.1712,0.1754,0.1765,0.1775,0.1647,0.1647,0.1647,0,0,0.1351,0.1392,0.1416,0.1436,0.1471,0.1481,0.1497,0.1524,0.1552,0.1594,0.1612,0.1651,0.1684,0.1699,0.1711,0.1759,0.1767,0.1771,0.18,0.1841,0.1851,0.186,0.1896,0.1908,0.1763,0.1763,0.1763,0,0.1365,0.1398,0.1421,0.145,0.1468,0.1496,0.1523,0.1548,0.1586,0.1614,0.1622,0.1699,0.1709,0.1753,0.1774,0.1771,0.1799,0.1768,0.1848,0.1857,0.1865,0.1901,0.1913,0.1765,0.1764,0.1764,0.1764,0,0.1379,0.142,0.1433,0.1485,0.1507,0.153,0.1565,0.1602,0.1639,0.1666,0.1736,0.1754,0.1801,0.1806,0.1806,0.187,0.1873,0.1856,0.1827,0.1879,0.1913,0.1925,0.1767,0.1766,0.1766,0.1765,0,0,0.1373,0.1434,0.1446,0.1476,0.1529,0.1543,0.1595,0.1645,0.1689,0.1738,0.1795,0.1843,0.187,0.1886,0.189,0.1918,0.1995,0.1918,0.1919,0.1948,0.2098,0.1972,0.1973,0.1996,0.1998,0.2,0.2097,0,0.1387,0.1439,0.1467,0.1517,0.1544,0.1588,0.1628,0.1681,0.1731,0.1792,0.1835,0.1898,0.1894,0.1926,0.1958,0.1992,0.2031,0.1971,0.2051,0.2053,0.1929,0.1984,0.2008,0.2107,0.211,0.2112,0.2113,0,0.1391,0.1426,0.1477,0.1537,0.1556,0.1595,0.1668,0.171,0.1798,0.1842,0.1914,0.1957,0.2028,0.2009,0.2105,0.2072,0.2103,0.2117,0.212,0.2003,0.195,0.2047,0.2136,0.2134,0.2133,0.2131,0.213,0,0.1356,0.1431,0.147,0.1491,0.1563,0.1608,0.1657,0.1739,0.1784,0.1892,0.1942,0.2028,0.209,0.2139,0.2189,0.2163,0.2282,0.224,0.2158,0.2149,0.222,0.221,0.2319,0.2319,0.2319,0.2319,0.2318,0,0.1334,0.137,0.1467,0.1485,0.1539,0.1605,0.1672,0.1733,0.1829,0.1884,0.1978,0.2034,0.2133,0.2207,0.2227,0.2236,0.2322,0.2182,0.217,0.223,0.2219,0.2229,0.2217,0.2322,0.2321,0.2321,0.232,0,0.1271,0.1338,0.1388,0.1487,0.1521,0.1566,0.1676,0.1716,0.1825,0.1902,0.1947,0.2081,0.2176,0.225,0.2341,0.2279,0.2297,0.2283,0.2364,0.2351,0.2126,0.2115,0.2187,0.2183,0.218,0.2177,0.2175,0,0.1234,0.1256,0.1373,0.1409,0.146,0.1539,0.158,0.1699,0.175,0.1908,0.1938,0.2086,0.2157,0.219,0.2272,0.2309,0.2284,0.2272,0.2176,0.2134,0.2116,0.2109,0.2103,0.217,0.217,0.2169,0.2168,0,0.1165,0.1227,0.1276,0.1341,0.1404,0.1447,0.1536,0.1566,0.1696,0.1812,0.189,0.1945,0.2054,0.2122,0.218,0.2193,0.2256,0.2239,0.2244,0.2155,0.2116,0.2099,0.2096,0.2158,0.2159,0.216,0.2161,0,0.1128,0.1143,0.122,0.1264,0.1333,0.1348,0.1398,0.147,0.1536,0.1722,0.1751,0.1899,0.204,0.2066,0.2111,0.2123,0.2081,0.1991,0.2008,0.202,0.1918,0.1842,0.1804,0,0,0,0,0,0.109,0.1098,0.113,0.1178,0.1236,0.1272,0.1362,0.1417,0.1558,0.1569,0.1657,0.1747,0.1823,0.1912,0.1892,0.2034,0.2084,0.2,0.1987,0.2099,0.2111,0.2005,0,0,0,0,0,0,0.107,0.1109,0.1104,0.1098,0.1109,0.115,0.1204,0.1287,0.1314,0.1469,0.1534,0.1642,0.176,0.1829,0.1864,0.1887,0.1841,0.21,0.2095,0.2092,0.2103,0.2113,0.2008,0,0,0,0,0]},{"header":{"parameterUnit":"m.s-1","parameterCategory":2,"la1":30.2991,"la2":30.254,"lo1":-89.0895,"lo2":-89.0444,"dy":0.0017,"dx":0.0017,"nx":28,"ny":28,"refTime":"2023-09-10T09:00:00:Z","depth":"4","parameterNumber":3,"parameterNumberName":"V-component_of_CURRENTS"},"data":[0,0,0,0,0,0,0,0,0,0,0,0,0,0,0,0,0,0,0,0,0,0,0,0,0,0,0,0,0,0,0,0,0,0,0,0,0,0,0,0,0,0,0,0,0,0,0,0,0,0,0,0,0,0,0,0,0,0,0.0276,0.0276,0,0.0258,0.0257,0.0257,0.0236,0.0236,0.0236,0.0236,0.0217,0.0217,0.0216,0,0,0,0,0,0,0,0,0,0,0,0,0,0.0297,0.0297,0.0276,0.0276,0.0276,0.0258,0.0257,0.0257,0.0236,0.0236,0.0236,0.0236,0.0217,0.0217,0.0216,0,0,0,0,0,0,0,0,0,0,0,0,0,0.0282,0.0297,0.0276,0.0265,0.0264,0.0258,0.0257,0.0257,0.0236,0.0236,0.0236,0.0236,0.0217,0.0217,0.0216,0.0216,0,0,0.0214,0.0214,0,0,0,0,0,0,0,0,0.0283,0.0281,0.0267,0.0266,0.0265,0.0251,0.0258,0.0244,0.0236,0.0245,0.0236,0.0236,0.023,0.0228,0.0222,0.0215,0.0214,0.0214,0.0214,0.0214,0.0213,0,0,0,0,0,0,0,0.0284,0.0282,0.0267,0.0267,0.0265,0.0263,0.026,0.0255,0.0237,0.0244,0.0243,0.0244,0.0229,0.0223,0.0222,0.0214,0.0214,0.0214,0.0213,0.0213,0.0206,0.0207,0,0,0,0,0,0,0.0291,0.0283,0.0267,0.0266,0.0276,0.0262,0.0259,0.0254,0.0237,0.0235,0.0244,0.0243,0.0224,0.0222,0.0221,0.0243,0.0214,0.0213,0.0213,0.0206,0.0206,0.0207,0,0,0,0,0,0,0.0291,0.0289,0.0268,0.0276,0.0274,0.0262,0.0256,0.0254,0.0254,0.0238,0.0235,0.0249,0.0224,0.0222,0.0223,0.0241,0.0213,0.0212,0.0206,0.0206,0.0207,0.0273,0,0,0,0,0,0,0.0291,0.0289,0.0288,0.0277,0.0274,0.0273,0.0256,0.0253,0.0256,0.0254,0.024,0.0238,0.0223,0.0224,0.0222,0.024,0.0212,0.0206,0.0206,0.0206,0.027,0.0275,0.0279,0,0,0,0,0,0.0292,0.0297,0.0288,0.0286,0.0271,0.0274,0.0272,0.0262,0.0257,0.0261,0.025,0.0239,0.0224,0.0224,0.0222,0.024,0.0206,0.0206,0.0206,0.0268,0.0274,0.0279,0,0,0,0,0,0,0.0303,0.0295,0.0285,0.0285,0.0282,0.0271,0.0275,0.0269,0.0264,0.0263,0.0245,0.0242,0.0249,0.0232,0.0231,0.0236,0.0212,0.0212,0.0259,0.0265,0.0269,0.0273,0.0211,0,0,0,0,0,0.0305,0.031,0.0297,0.0301,0.0297,0.0287,0.0287,0.0282,0.0277,0.0274,0.0266,0.0254,0.0247,0.0247,0.0236,0.0243,0.0209,0.025,0.0255,0.0259,0.0259,0.0226,0.0228,0.0208,0.0208,0.0208,0,0,0.031,0.0309,0.031,0.0305,0.0299,0.0305,0.0286,0.0292,0.0303,0.0273,0.0286,0.0273,0.0252,0.0258,0.0259,0.0248,0.0245,0.0259,0.0263,0.0261,0.0227,0.0229,0.0231,0.0208,0.0208,0.0208,0,0,0.0332,0.032,0.0331,0.033,0.033,0.0325,0.0331,0.0325,0.0325,0.0333,0.0315,0.0311,0.0303,0.0293,0.0286,0.0308,0.027,0.0305,0.0335,0.0304,0.0306,0.0307,0.0261,0.0257,0.0308,0.0308,0.0308,0,0.0337,0.0348,0.0336,0.0346,0.0354,0.0338,0.0354,0.0351,0.0351,0.0358,0.0345,0.0334,0.0319,0.0325,0.0331,0.0321,0.0288,0.0321,0.0311,0.0312,0.0311,0.0264,0.0259,0.0312,0.0311,0.0311,0.0311,0,0.0366,0.0373,0.0381,0.0389,0.0396,0.0409,0.0404,0.0414,0.0414,0.041,0.0417,0.0392,0.0384,0.038,0.0363,0.0361,0.0333,0.0322,0.0302,0.0318,0.0266,0.026,0.0316,0.0315,0.0314,0.0313,0,0,0.0378,0.0398,0.0401,0.0418,0.0422,0.0436,0.0454,0.0468,0.049,0.0475,0.0493,0.0474,0.0457,0.0445,0.0423,0.0396,0.0367,0.0363,0.036,0.0324,0.0285,0.0249,0.0238,0.0356,0.0356,0.0355,0.0247,0,0.0404,0.0441,0.0443,0.0483,0.05,0.0499,0.0523,0.0535,0.0537,0.0548,0.0516,0.0522,0.0482,0.0485,0.045,0.0395,0.0354,0.0396,0.0268,0.0264,0.0236,0.0232,0.0353,0.0242,0.0241,0.024,0.0239,0,0.0428,0.0455,0.0499,0.0542,0.055,0.0576,0.0619,0.0638,0.0641,0.0641,0.0626,0.0595,0.0561,0.0523,0.0419,0.0447,0.0368,0.0313,0.0307,0.0247,0.0217,0.0222,0.0227,0.0228,0.0229,0.023,0.023,0,0.0455,0.0494,0.054,0.0552,0.0593,0.0626,0.0654,0.0673,0.0703,0.0701,0.0711,0.0655,0.0635,0.0535,0.0413,0.0417,0.0283,0.0275,0.016,0.0156,0.0192,0.0192,0.0187,0.0187,0.0187,0.0188,0.0188,0,0.0481,0.0516,0.0563,0.059,0.0656,0.0671,0.0741,0.0754,0.0784,0.0817,0.0764,0.0758,0.0636,0.0544,0.0425,0.0269,0.0286,0.0158,0.0127,0.0221,0.0225,0.0187,0.0188,0.0184,0.0185,0.0185,0.0186,0,0.0496,0.0523,0.0583,0.0646,0.0671,0.0722,0.0804,0.0851,0.0867,0.0904,0.0906,0.0837,0.0708,0.0564,0.0395,0.029,0.0145,0.0081,0.0179,0.0157,0.0032,0.0038,-0.0053,-0.0055,-0.0057,-0.0059,-0.006,0,0.0505,0.0538,0.0626,0.0669,0.0703,0.0782,0.084,0.089,0.0939,0.0944,0.0959,0.0853,0.0779,0.0513,0.0357,0.0116,0.008,0.0002,0.0024,0.0029,0.0008,0.0017,0.0025,-0.0063,-0.0063,-0.0064,-0.0064,0,0.0522,0.0558,0.0608,0.07,0.0773,0.0856,0.094,0.0981,0.103,0.1042,0.0992,0.0854,0.0699,0.0498,0.0306,0.0137,0.0058,-0.0018,-0.0015,0.0005,0.0016,-0.0,0.001,-0.007,-0.0069,-0.0069,-0.0068,0,0.0532,0.0567,0.0638,0.0718,0.0811,0.09,0.0948,0.0998,0.1043,0.1048,0.1022,0.0858,0.0771,0.0506,0.0333,0.0159,0.0115,0.0067,0.0064,0.0069,0.0137,0.0171,0.0101,0,0,0,0,0,0.0531,0.0571,0.0648,0.0737,0.0835,0.0892,0.0999,0.1043,0.1088,0.1056,0.1044,0.0894,0.0627,0.0518,0.0335,0.029,0.0082,0.007,0.0025,-0.0105,-0.0098,-0.0042,0,0,0,0,0,0,0.0527,0.0593,0.0638,0.0743,0.0806,0.0916,0.0988,0.1023,0.1012,0.1023,0.0886,0.083,0.0575,0.0717,0.032,0.0269,0.0213,-0.0047,-0.0051,-0.0109,-0.0102,-0.0097,-0.0037,0,0,0,0,0]}]]